Weather History for Fayetteville, AR

Change the Weather History Date:

Monday, December 10, 2012

  Actual Average Record
Temperature  
Mean Temperature 25 °F 38 °F  
Max Temperature 33 °F 49 °F 72 °F (1996)
Min Temperature 17 °F 28 °F 5 °F (1995)
Degree Days  
Heating Degree Days 40 27  
Month to date heating degree days 141 254  
Since 1 July heating degree days 954 1083  
Moisture  
Dew Point 17 °F    
Average Humidity 74    
Maximum Humidity 91    
Minimum Humidity 56    
Precipitation  
Precipitation 0.00 in 0.11 in 1.97 in (1960)
Month to date precipitation 1.15 1.17  
Year to date precipitation 29.06 46.44  
Sea Level Pressure  
Sea Level Pressure 30.07 in    
Wind  
Wind Speed 8 mph (NNW)    
Max Wind Speed 17 mph    
Max Gust Speed 22 mph    
Visibility 10 miles    
Events      
T = Trace of Precipitation, MM = Missing Value Source: NWS Daily Summary

Daily Weather History Graph

Daily Weather History Graph

Search for Another Location

Airport:

Trip Planner

Search our weather history database for the weather conditions in past years. The results will help you decide how hot, cold, wet, or windy it might be!

Date:

Astronomy

Dec. 10, 2012 Rise Set
Actual Time 7:16 AM CST 5:02 PM CST
Civil Twilight 6:48 AM CST 5:31 PM CST
Nautical Twilight 6:16 AM CST 6:03 PM CST
Astronomical Twilight 5:45 AM CST 6:34 PM CST
Moon 4:04 AM CST (12/10) 2:49 PM CST (12/10)
Length of Visible Light 10h 42m
Length of Day
9h 45m
Waning Crescent, 10% of the Moon is Illuminated
Dec 10
Waning Crescent
Dec 13
New
Dec 19
First Quarter
Dec 28
Full
Jan 4
Last Quarter

Hourly Weather History & Observations

Time (CST) Temp. Windchill Dew Point Humidity Pressure Visibility Wind Dir Wind Speed Gust Speed Precip Events Conditions
12:53 AM 28.0 °F 16.5 °F 17.1 °F 63% 30.03 in 10.0 mi NNW 15.0 mph - N/A   Clear
1:53 AM 27.0 °F 16.7 °F 15.1 °F 61% 30.02 in 10.0 mi North 11.5 mph 19.6 mph N/A   Clear
2:53 AM 26.1 °F 17.6 °F 16.0 °F 66% 30.01 in 10.0 mi NNW 8.1 mph - N/A   Clear
3:53 AM 26.1 °F 14.5 °F 16.0 °F 66% 30.03 in 10.0 mi NW 13.8 mph - N/A   Mostly Cloudy
4:53 AM 25.0 °F 13.6 °F 16.0 °F 69% 30.02 in 10.0 mi NNW 12.7 mph - N/A   Overcast
5:53 AM 25.0 °F 16.3 °F 17.1 °F 72% 30.05 in 10.0 mi NW 8.1 mph - N/A   Overcast
6:53 AM 24.8 °F 14.0 °F 15.8 °F 69% 30.06 in 10.0 mi NW 11.5 mph - N/A   Overcast
7:26 AM 24.8 °F 14.6 °F 15.8 °F 69% 30.07 in 10.0 mi NW 10.4 mph 18.4 mph N/A   Overcast
7:53 AM 23.0 °F 10.6 °F 15.1 °F 72% 30.10 in 10.0 mi NNW 13.8 mph - N/A   Overcast
8:53 AM 24.1 °F 11.5 °F 15.1 °F 69% 30.09 in 10.0 mi NNW 15.0 mph - N/A   Overcast
9:53 AM 26.1 °F 16.8 °F 16.0 °F 66% 30.09 in 10.0 mi NNW 9.2 mph - N/A   Overcast
10:53 AM 27.0 °F 19.5 °F 18.0 °F 69% 30.10 in 10.0 mi NW 6.9 mph - N/A   Mostly Cloudy
11:53 AM 30.9 °F 21.7 °F 19.9 °F 64% 30.08 in 10.0 mi NNW 11.5 mph - N/A   Mostly Cloudy
12:53 PM 32.0 °F 23.6 °F 19.9 °F 61% 30.07 in 10.0 mi North 10.4 mph - N/A   Mostly Cloudy
1:09 PM 30.2 °F 20.8 °F 19.4 °F 64% 30.02 in 10.0 mi NNW 11.5 mph 17.3 mph N/A   Scattered Clouds
1:53 PM 32.0 °F 23.6 °F 19.9 °F 61% 30.06 in 10.0 mi WNW 10.4 mph - N/A   Clear
2:53 PM 33.1 °F 25.5 °F 19.0 °F 56% 30.05 in 10.0 mi NNW 9.2 mph - N/A   Clear
3:53 PM 32.0 °F 24.2 °F 19.0 °F 59% 30.06 in 10.0 mi NNW 9.2 mph - N/A   Clear
4:53 PM 28.9 °F 22.8 °F 18.0 °F 64% 30.06 in 10.0 mi NW 5.8 mph - N/A   Clear
5:53 PM 27.0 °F 21.6 °F 18.0 °F 69% 30.09 in 10.0 mi NW 4.6 mph - N/A   Clear
6:53 PM 26.1 °F - 18.0 °F 71% 30.11 in 10.0 mi Calm Calm - N/A   Clear
7:53 PM 21.0 °F - 17.1 °F 85% 30.11 in 10.0 mi Calm Calm - N/A   Clear
8:53 PM 21.0 °F - 18.0 °F 88% 30.11 in 10.0 mi Calm Calm - N/A   Clear
9:53 PM 19.0 °F - 17.1 °F 92% 30.12 in 10.0 mi Calm Calm - N/A   Clear
10:53 PM 19.0 °F - 17.1 °F 92% 30.14 in 10.0 mi Calm Calm - N/A   Clear
11:53 PM 19.0 °F - 16.0 °F 88% 30.14 in 10.0 mi Calm Calm - N/A   Clear